This demonstration page uses our WeatherBlox Daily Observations layout. Learn more.

Left ArrowRight Arrow

39.51506, -84.39828

Hourly Observations for August 22, 2016

Temp ( °F °C ) Dew Point ( °F °C ) Humidity (%) Winds ( mph kmh ) Pressure ( in mb ) Visibility ( mi km ) Precip ( " mm )
12:15 am 00:15 Clear 62 16.6 56 13.4 82 82 N N/A 30.06 1018 10 16 N/A
12:35 am 00:35 Clear 62 16.6 56 13.3 81 81 N N/A 30.09 1019 10 16 N/A
12:55 am 00:55 Clear 61 16 55 12.7 81 81 N N/A 30.12 1020 10 16 N/A
1:15 am 01:15 Clear 61 16 55 12.8 81 81 N N/A 30.12 1020 10 16 N/A
1:35 am 01:35 Clear 61 16 55 12.8 81 81 N N/A 30.12 1020 10 16 N/A
1:55 am 01:55 Clear 60 15.6 55 12.5 82 82 N N/A 30.12 1020 10 16 N/A
2:15 am 02:15 Clear 60 15.3 54 12.3 82 82 N N/A 30.12 1020 10 16 N/A
2:35 am 02:35 Clear 60 15.7 55 12.5 81 81 N N/A 30.12 1020 10 16 N/A
2:55 am 02:55 Clear 60 15.6 55 12.6 82 82 N N/A 30.12 1020 10 16 N/A
3:15 am 03:15 Clear 60 15.5 55 12.9 85 85 N N/A 30.12 1020 10 16 N/A
3:35 am 03:35 Clear 60 15.3 55 12.7 85 85 N N/A 30.12 1020 10 16 N/A
3:55 am 03:55 Clear 60 15.3 55 12.7 85 85 N N/A 30.12 1020 10 16 N/A
4:15 am 04:15 Clear 60 15.3 55 12.6 84 84 N N/A 30.12 1020 10 16 N/A
4:35 am 04:35 Clear 60 15.3 55 12.7 85 85 N N/A 30.12 1020 10 16 N/A
4:55 am 04:55 Clear 60 15.3 55 12.7 85 85 N N/A 30.12 1020 10 16 N/A
5:15 am 05:15 Clear 58 14.4 53 11.9 85 85 N N/A 30.15 1021 10 16 N/A
5:35 am 05:35 Clear 57 13.8 52 11.3 85 85 N N/A 30.15 1021 10 16 N/A
5:55 am 05:55 Clear 57 13.8 53 11.4 86 86 N N/A 30.15 1021 10 16 N/A
6:15 am 06:15 Clear with Mist and Fog 57 14 53 11.5 85 85 N N/A 30.15 1021 2 3 N/A
6:35 am 06:35 Clear with Mist and Fog 57 13.9 53 11.5 86 86 N N/A 30.15 1021 3 5 N/A
6:55 am 06:55 Mostly Cloudy with Mist and Fog 57 13.8 53 11.5 86 86 N N/A 30.18 1022 1 2 N/A
7:15 am 07:15 Sunny 57 13.8 52 11.3 85 85 NW 3 6 30.18 1022 7 11 N/A
7:35 am 07:35 Sunny 57 13.8 53 11.5 86 86 N N/A 30.18 1022 10 16 N/A
7:55 am 07:55 Sunny 60 15.3 55 13 86 86 N N/A 30.18 1022 10 16 N/A
8:15 am 08:15 Sunny 60 15.6 56 13.2 86 86 N N/A 30.21 1023 10 16 N/A
8:35 am 08:35 Sunny 62 16.6 58 14.2 86 86 N N/A 30.21 1023 10 16 N/A
8:55 am 08:55 Sunny 63 17.3 57 14.1 82 82 N N/A 30.18 1022 10 16 N/A
9:15 am 09:15 Sunny 67 19.4 59 15.2 77 77 N N/A 30.18 1022 10 16 N/A
9:35 am 09:35 Sunny 67 19.5 59 15 75 75 N N/A 30.18 1022 10 16 N/A
9:55 am 09:55 Sunny 69 20.8 60 15.8 73 73 N N/A 30.18 1022 10 16 N/A
10:15 am 10:15 Sunny 69 20.8 59 15.1 70 70 N N/A 30.21 1023 10 16 N/A
10:35 am 10:35 Sunny 72 22.1 60 15.3 65 65 N N/A 30.21 1023 10 16 N/A
10:55 am 10:55 Sunny 74 23.1 58 14.5 59 59 ENE 3 6 30.21 1023 10 16 N/A
11:15 am 11:15 Sunny 74 23.6 54 12.2 49 49 N N/A 30.21 1023 10 16 N/A
11:35 am 11:35 Sunny 74 23.6 51 10.7 44 44 N N/A 30.21 1023 10 16 N/A
11:55 am 11:55 Sunny 74 23.6 51 10.4 43 43 N N/A 30.21 1023 10 16 N/A
12:15 pm 12:15 Sunny 74 23.6 50 10 42 42 N N/A 30.21 1023 10 16 N/A
12:35 pm 12:35 Sunny 77 25.1 54 12 44 44 N N/A 30.21 1023 10 16 N/A
12:55 pm 12:55 Sunny 77 25.1 51 10.8 41 41 NW 6 9 30.21 1023 10 16 N/A
1:15 pm 13:15 Sunny 77 25.1 50 9.8 38 38 W 3 6 30.21 1023 10 16 N/A
1:35 pm 13:35 Mostly Cloudy 77 25.1 49 9.7 38 38 WSW 3 6 30.21 1023 10 16 N/A
1:55 pm 13:55 Mostly Cloudy 77 25.1 47 8.2 34 34 WSW 7 11 30.21 1023 10 16 N/A
2:15 pm 14:15 Mostly Cloudy 77 24.8 49 9.5 38 38 N 5 7 30.21 1023 10 16 N/A
2:35 pm 14:35 Partly Cloudy 77 25.1 46 7.9 33 33 NW 3 6 30.21 1023 10 16 N/A
2:55 pm 14:55 Sunny 77 25.1 45 7.4 32 32 WSW 6 9 30.21 1023 10 16 N/A
3:15 pm 15:15 Partly Cloudy 77 25.1 47 8.1 34 34 WSW 6 9 30.18 1022 10 16 N/A
3:35 pm 15:35 Sunny 79 26.2 49 9.2 34 34 SSW 5 7 30.18 1022 10 16 N/A
3:55 pm 15:55 Sunny 78 25.5 47 8.3 34 34 WSW 6 9 30.18 1022 10 16 N/A
4:15 pm 16:15 Partly Cloudy 80 26.5 47 8.5 32 32 W 5 7 30.18 1022 10 16 N/A
4:35 pm 16:35 Sunny 80 26.5 48 9.1 33 33 WSW 6 9 30.18 1022 10 16 N/A
4:55 pm 16:55 Sunny 80 26.5 47 8.2 31 31 N N/A 30.18 1022 10 16 N/A
5:15 pm 17:15 Sunny 80 26.5 48 9 33 33 WNW 6 9 30.18 1022 10 16 N/A
5:35 pm 17:35 Sunny 80 26.5 47 8.3 32 32 N N/A 30.18 1022 10 16 N/A
5:55 pm 17:55 Sunny 80 26.5 47 8.3 32 32 WNW 5 7 30.18 1022 10 16 N/A
6:15 pm 18:15 Sunny 80 26.5 48 9 33 33 WNW 3 6 30.18 1022 10 16 N/A
6:35 pm 18:35 Sunny 79 26.3 49 9.3 34 34 W 3 6 30.18 1022 10 16 N/A
6:55 pm 18:55 Sunny 77 25.1 49 9.2 37 37 WNW 3 6 30.18 1022 10 16 N/A
7:15 pm 19:15 Sunny 77 25.1 53 11.5 43 43 WNW 3 6 30.18 1022 10 16 N/A
7:35 pm 19:35 Sunny 77 25.1 54 12.2 45 45 N N/A 30.18 1022 10 16 N/A
7:55 pm 19:55 Sunny 74 23.6 60 15.6 61 61 N N/A 30.18 1022 10 16 N/A
8:15 pm 20:15 Sunny 74 23.1 62 16.7 67 67 N N/A 30.18 1022 10 16 N/A
8:35 pm 20:35 Clear 69 20.8 60 15.8 73 73 N N/A 30.18 1022 10 16 N/A
8:55 pm 20:55 Clear 69 20.8 60 15.5 72 72 N N/A 30.18 1022 10 16 N/A
9:15 pm 21:15 Clear 69 20.6 61 16 75 75 NW 3 6 30.21 1023 10 16 N/A
9:35 pm 21:35 Clear 64 18 58 14.2 79 79 N N/A 30.21 1023 10 16 N/A
9:55 pm 21:55 Clear 64 18 58 14.4 80 80 N N/A 30.21 1023 10 16 N/A
10:15 pm 22:15 Clear 63 17 57 13.7 81 81 N N/A 30.24 1024 10 16 N/A
10:35 pm 22:35 Clear 63 17.2 57 13.8 81 81 N N/A 30.24 1024 10 16 N/A
10:55 pm 22:55 Clear 62 16.6 56 13.5 82 82 N N/A 30.24 1024 10 16 N/A
11:15 pm 23:15 Clear 62 16.6 56 13.5 82 82 N N/A 30.24 1024 10 16 N/A
11:35 pm 23:35 Clear 62 16.6 56 13.5 82 82 N N/A 30.24 1024 10 16 N/A
11:55 pm 23:55 Clear 61 16 55 12.7 81 81 N N/A 30.24 1024 10 16 N/A

Powered by AerisWeather